This is the latest recevied weather packets stored in our database for station/object KJ5FA-10. If no packets are shown the sender has not sent any weather packets the latest 10 day(s).
| Time | Temp. | Humidity | Pressure | Rain* | Wind** | Luminosity | Snow |
|---|---|---|---|---|---|---|---|
| 1788150281 | 27.78° C | 55% | 1017.3 hPa | 0 mm | - | - | - |
| 1788149381 | 27.78° C | 55% | 1017.2 hPa | 0 mm | - | - | - |
| 1788148482 | 27.78° C | 56% | 1016.9 hPa | 0 mm | - | - | - |
| 1788147581 | 27.22° C | 57% | 1016.9 hPa | 0 mm | - | - | - |
| 1788146681 | 26.67° C | 60% | 1016.7 hPa | 0 mm | - | - | - |
| 1788145781 | 26.67° C | 63% | 1016.8 hPa | 0 mm | - | - | - |
| 1788144881 | 27.22° C | 59% | 1016.6 hPa | 0 mm | - | - | - |
| 1788143981 | 27.78° C | 56% | 1016.6 hPa | 0 mm | - | - | - |
| 1788143081 | 28.33° C | 54% | 1016.4 hPa | 0 mm | - | - | - |
| 1788142181 | 28.89° C | 53% | 1016.3 hPa | 0 mm | - | - | - |
| 1788141281 | 28.89° C | 55% | 1016.1 hPa | 0 mm | - | - | - |
| 1788140381 | 28.89° C | 54% | 1016 hPa | 0 mm | - | - | - |
| 1788139481 | 29.44° C | 52% | 1015.8 hPa | 0 mm | - | - | - |
| 1788138581 | 30° C | 49% | 1015.7 hPa | 0 mm | - | - | - |
| 1788137681 | 30.56° C | 47% | 1015.7 hPa | 0 mm | - | - | - |
| 1788136782 | 31.67° C | 44% | 1015.4 hPa | 0 mm | - | - | - |
| 1788135881 | 32.22° C | 43% | 1015.4 hPa | 0 mm | - | - | - |
| 1788134982 | 32.78° C | 41% | 1015.3 hPa | 0 mm | - | - | - |
| 1788134081 | 33.33° C | 39% | 1015.3 hPa | 0 mm | - | - | - |
| 1788133181 | 33.89° C | 38% | 1015.5 hPa | 0 mm | - | - | - |
| 1788132281 | 34.44° C | 38% | 1015.4 hPa | 0 mm | - | - | - |
| 1788131382 | 34.44° C | 36% | 1015.3 hPa | 0 mm | - | - | - |
| 1788130481 | 35° C | 37% | 1015.3 hPa | 0 mm | - | - | - |
| 1788129581 | 35° C | 36% | 1015.3 hPa | 0 mm | - | - | - |
| 1788128681 | 35.56° C | 33% | 1015.2 hPa | 0 mm | - | - | - |
* Rain latest hour (hover to see other rain measurements)
** Current wind speed in m/s (hover to see current wind gust speed)